UPS1227 KSDF-KRFD

Flight info

Callsign UPS1227
Flight time 0h 54m
Altitude 40000
Route SPILR1 BNGIN DECEE MACES QUOTE1
Aircraft B752/M-SDE2E3FGHIJ3J4J7RWXY/LB1

Departure

Time 2026-04-29 23:30
Airport Louisville Muhammad Ali International Airport (KSDF)

Arrival

Time 2026-04-30 00:24
Airport Chicago Rockford International Airport (KRFD)
Time Latitude Longitude Altitude Speed Heading
2026-04-29 22:53 38.17333 -85.74023 480 ft 0 kts 200°
2026-04-29 23:17 38.17339 -85.74020 480 ft 2 kts 200°
2026-04-29 23:17 38.17353 -85.74013 480 ft 2 kts 208°
2026-04-29 23:17 38.17365 -85.74002 480 ft 2 kts 227°
2026-04-29 23:17 38.17374 -85.73987 480 ft 2 kts 244°
2026-04-29 23:18 38.17379 -85.73968 480 ft 2 kts 261°
2026-04-29 23:18 38.17379 -85.73950 480 ft 2 kts 278°
2026-04-29 23:18 38.17377 -85.73937 480 ft 0 kts 290°
2026-04-29 23:18 38.17374 -85.73931 480 ft 0 kts 291°
2026-04-29 23:19 38.17375 -85.73931 480 ft 0 kts 291°
2026-04-29 23:21 38.17396 -85.73999 480 ft 12 kts 290°
2026-04-29 23:21 38.17419 -85.74079 480 ft 0 kts 290°
2026-04-29 23:25 38.17430 -85.74115 480 ft 10 kts 287°
2026-04-29 23:25 38.17413 -85.74255 480 ft 16 kts 232°
2026-04-29 23:26 38.17294 -85.74253 479 ft 24 kts 165°
2026-04-29 23:26 38.17116 -85.74194 475 ft 27 kts 165°
2026-04-29 23:26 38.16935 -85.74135 472 ft 26 kts 165°
2026-04-29 23:26 38.16759 -85.74075 469 ft 25 kts 162°
2026-04-29 23:27 38.16591 -85.74021 467 ft 24 kts 165°
2026-04-29 23:27 38.16434 -85.73968 466 ft 22 kts 165°
2026-04-29 23:27 38.16285 -85.73919 464 ft 21 kts 164°
2026-04-29 23:27 38.16143 -85.73872 462 ft 24 kts 165°
2026-04-29 23:28 38.15960 -85.73811 461 ft 26 kts 163°
2026-04-29 23:28 38.15875 -85.73799 461 ft 0 kts 201°
2026-04-29 23:28 38.15870 -85.73802 461 ft 2 kts 210°
2026-04-29 23:29 38.15841 -85.73867 460 ft 14 kts 258°
2026-04-29 23:29 38.15895 -85.73955 460 ft 16 kts 343°
2026-04-29 23:29 38.16255 -85.74073 462 ft 94 kts 346°
2026-04-29 23:29 38.17140 -85.74360 527 ft 161 kts 338°
2026-04-29 23:30 38.18288 -85.74765 1217 ft 181 kts 342°
2026-04-29 23:30 38.19510 -85.75183 2203 ft 191 kts 342°
2026-04-29 23:30 38.20805 -85.75803 2941 ft 211 kts 330°
2026-04-29 23:30 38.22097 -85.76755 3825 ft 227 kts 329°
2026-04-29 23:31 38.23525 -85.77788 4633 ft 246 kts 329°
2026-04-29 23:31 38.25004 -85.78867 5771 ft 250 kts 327°
2026-04-29 23:31 38.26509 -85.79968 6861 ft 256 kts 326°
2026-04-29 23:31 38.28031 -85.81086 7945 ft 260 kts 325°
2026-04-29 23:32 38.29656 -85.82093 8991 ft 266 kts 329°
2026-04-29 23:32 38.31334 -85.83073 9994 ft 271 kts 328°
2026-04-29 23:32 38.33056 -85.84087 10824 ft 283 kts 328°
2026-04-29 23:32 38.34909 -85.85173 11481 ft 300 kts 328°
2026-04-29 23:33 38.36852 -85.86306 12054 ft 319 kts 328°
2026-04-29 23:33 38.38889 -85.87487 12831 ft 329 kts 328°
2026-04-29 23:33 38.40947 -85.88675 13938 ft 328 kts 328°
2026-04-29 23:33 38.43044 -85.89893 14864 ft 333 kts 327°
2026-04-29 23:34 38.45162 -85.91125 15753 ft 339 kts 327°
2026-04-29 23:34 38.47280 -85.92355 16771 ft 342 kts 327°
2026-04-29 23:34 38.49461 -85.93626 17611 ft 347 kts 327°
2026-04-29 23:34 38.51663 -85.94907 18469 ft 351 kts 327°
2026-04-29 23:35 38.53871 -85.96192 19335 ft 354 kts 326°
2026-04-29 23:35 38.56128 -85.97510 20104 ft 359 kts 326°
2026-04-29 23:35 38.58417 -85.98844 20882 ft 364 kts 326°
2026-04-29 23:35 38.60717 -86.00188 21640 ft 368 kts 326°
2026-04-29 23:36 38.63042 -86.01547 22319 ft 373 kts 326°
2026-04-29 23:36 38.65421 -86.02936 23124 ft 375 kts 326°
2026-04-29 23:36 38.67800 -86.04329 23802 ft 379 kts 326°
2026-04-29 23:36 38.70190 -86.05714 24530 ft 383 kts 327°
2026-04-29 23:37 38.72682 -86.06950 25264 ft 387 kts 329°
2026-04-29 23:37 38.75197 -86.08185 25840 ft 392 kts 328°
2026-04-29 23:37 38.77770 -86.09463 26558 ft 393 kts 328°
2026-04-29 23:37 38.80294 -86.10724 27184 ft 395 kts 328°
2026-04-29 23:38 38.82847 -86.12004 27791 ft 398 kts 328°
2026-04-29 23:38 38.85448 -86.13313 28384 ft 401 kts 328°
2026-04-29 23:38 38.88041 -86.14617 28980 ft 403 kts 327°
2026-04-29 23:38 38.90646 -86.15932 29503 ft 406 kts 327°
2026-04-29 23:39 38.93278 -86.17261 29999 ft 409 kts 327°
2026-04-29 23:39 38.95945 -86.18607 30630 ft 408 kts 327°
2026-04-29 23:39 38.98581 -86.19943 30953 ft 414 kts 327°
2026-04-29 23:39 39.01257 -86.21300 31402 ft 416 kts 327°
2026-04-29 23:40 39.03968 -86.22670 31773 ft 419 kts 327°
2026-04-29 23:40 39.06672 -86.24043 32237 ft 419 kts 327°
2026-04-29 23:40 39.09372 -86.25407 32807 ft 417 kts 327°
2026-04-29 23:40 39.12046 -86.26769 33254 ft 416 kts 327°
2026-04-29 23:41 39.14689 -86.28107 33896 ft 410 kts 327°
2026-04-29 23:41 39.17363 -86.29472 34169 ft 413 kts 327°
2026-04-29 23:41 39.20027 -86.30828 34570 ft 411 kts 328°
2026-04-29 23:41 39.22696 -86.32192 34813 ft 413 kts 327°
2026-04-29 23:42 39.25366 -86.33554 35307 ft 413 kts 328°
2026-04-29 23:42 39.28036 -86.34918 35606 ft 414 kts 328°
2026-04-29 23:42 39.30712 -86.36285 35891 ft 416 kts 328°
2026-04-29 23:42 39.33387 -86.37656 36141 ft 417 kts 328°
2026-04-29 23:43 39.36048 -86.39015 36527 ft 415 kts 328°
2026-04-29 23:43 39.38775 -86.40414 36692 ft 418 kts 329°
2026-04-29 23:43 39.41462 -86.41790 36992 ft 418 kts 329°
2026-04-29 23:43 39.44134 -86.43160 37315 ft 417 kts 329°
2026-04-29 23:44 39.49589 -86.45965 37696 ft 420 kts 329°
2026-04-29 23:44 39.52304 -86.47361 37949 ft 420 kts 329°
2026-04-29 23:44 39.55023 -86.48761 38065 ft 424 kts 329°
2026-04-29 23:45 39.57733 -86.50157 38306 ft 423 kts 330°
2026-04-29 23:45 39.60487 -86.51579 38466 ft 425 kts 330°
2026-04-29 23:45 39.63200 -86.52978 38684 ft 426 kts 330°
2026-04-29 23:45 39.65970 -86.54411 38880 ft 427 kts 330°
2026-04-29 23:46 39.68712 -86.55827 39135 ft 426 kts 330°
2026-04-29 23:46 39.71470 -86.57253 39298 ft 428 kts 330°
2026-04-29 23:46 39.74241 -86.58688 39497 ft 428 kts 330°
2026-04-29 23:46 39.77006 -86.60121 39624 ft 430 kts 330°
2026-04-29 23:47 39.79772 -86.61556 39817 ft 430 kts 330°
2026-04-29 23:47 39.82517 -86.62979 39969 ft 427 kts 330°
2026-04-29 23:47 39.88044 -86.65854 39984 ft 428 kts 330°
2026-04-29 23:48 39.93584 -86.68740 39984 ft 428 kts 330°
2026-04-29 23:48 39.99075 -86.71626 39991 ft 427 kts 328°
2026-04-29 23:49 40.03891 -86.75780 39999 ft 410 kts 309°
2026-04-29 23:49 40.07382 -86.81546 40007 ft 406 kts 302°
2026-04-29 23:50 40.10901 -86.87298 39993 ft 405 kts 304°
2026-04-29 23:51 40.16407 -86.95709 40012 ft 411 kts 306°
2026-04-29 23:51 40.20164 -87.01301 40000 ft 410 kts 306°
2026-04-29 23:52 40.23946 -87.06894 40012 ft 410 kts 307°
2026-04-29 23:52 40.27716 -87.12462 40000 ft 411 kts 307°
2026-04-29 23:53 40.31495 -87.18043 40015 ft 411 kts 307°
2026-04-29 23:53 40.35269 -87.23625 39999 ft 411 kts 307°
2026-04-29 23:54 40.39043 -87.29215 40004 ft 411 kts 307°
2026-04-29 23:54 40.42823 -87.34825 40012 ft 412 kts 307°
2026-04-29 23:55 40.46601 -87.40440 39986 ft 410 kts 307°
2026-04-29 23:55 40.50380 -87.46069 39994 ft 413 kts 307°
2026-04-29 23:56 40.54163 -87.51713 40012 ft 413 kts 307°
2026-04-29 23:56 40.57949 -87.57372 39996 ft 412 kts 307°
2026-04-29 23:57 40.61709 -87.63002 40006 ft 413 kts 307°
2026-04-29 23:57 40.65499 -87.68689 40022 ft 414 kts 307°
2026-04-29 23:58 40.69276 -87.74364 40010 ft 413 kts 306°
2026-04-29 23:58 40.73050 -87.80048 40009 ft 414 kts 307°
2026-04-29 23:59 40.76812 -87.85720 39905 ft 402 kts 306°
2026-04-29 23:59 40.78592 -87.88399 39673 ft 374 kts 306°
2026-04-29 23:59 40.80248 -87.90902 39385 ft 357 kts 306°
2026-04-29 23:59 40.81874 -87.93372 39159 ft 363 kts 306°
2026-04-30 00:00 40.83553 -87.95924 38696 ft 375 kts 306°
2026-04-30 00:00 40.85286 -87.98556 38202 ft 382 kts 306°
2026-04-30 00:00 40.87027 -88.01195 37755 ft 380 kts 306°
2026-04-30 00:00 40.88733 -88.03782 37322 ft 376 kts 306°
2026-04-30 00:01 40.90436 -88.06368 36906 ft 371 kts 306°
2026-04-30 00:01 40.92121 -88.08930 36493 ft 369 kts 305°
2026-04-30 00:01 40.93809 -88.11502 36066 ft 371 kts 305°
2026-04-30 00:01 40.95504 -88.14087 35655 ft 374 kts 305°
2026-04-30 00:02 40.97196 -88.16667 35223 ft 372 kts 305°
2026-04-30 00:02 40.98871 -88.19222 34799 ft 369 kts 305°
2026-04-30 00:02 41.00551 -88.21788 34337 ft 368 kts 305°
2026-04-30 00:02 41.02211 -88.24324 33896 ft 366 kts 304°
2026-04-30 00:03 41.03869 -88.26864 33467 ft 367 kts 305°
2026-04-30 00:03 41.05524 -88.29398 33045 ft 368 kts 304°
2026-04-30 00:03 41.07201 -88.31971 32625 ft 371 kts 304°
2026-04-30 00:03 41.08883 -88.34551 32106 ft 371 kts 304°
2026-04-30 00:04 41.10574 -88.37144 31565 ft 370 kts 304°
2026-04-30 00:04 41.12244 -88.39713 31027 ft 370 kts 304°
2026-04-30 00:04 41.13909 -88.42272 30483 ft 372 kts 304°
2026-04-30 00:04 41.15604 -88.44884 29871 ft 372 kts 304°
2026-04-30 00:05 41.17274 -88.47455 29256 ft 369 kts 304°
2026-04-30 00:05 41.18935 -88.50015 28660 ft 366 kts 304°
2026-04-30 00:05 41.20583 -88.52559 28063 ft 362 kts 304°
2026-04-30 00:05 41.22200 -88.55055 27472 ft 357 kts 304°
2026-04-30 00:06 41.23812 -88.57548 26885 ft 354 kts 304°
2026-04-30 00:06 41.25406 -88.60014 26316 ft 351 kts 304°
2026-04-30 00:06 41.26967 -88.62432 25776 ft 348 kts 305°
2026-04-30 00:06 41.28550 -88.64887 25242 ft 346 kts 305°
2026-04-30 00:07 41.30109 -88.67306 24735 ft 344 kts 305°
2026-04-30 00:07 41.31653 -88.69701 24224 ft 342 kts 305°
2026-04-30 00:07 41.33191 -88.72092 23721 ft 340 kts 305°
2026-04-30 00:07 41.34716 -88.74462 23226 ft 337 kts 305°
2026-04-30 00:08 41.36222 -88.76805 22736 ft 334 kts 305°
2026-04-30 00:08 41.37722 -88.79143 22275 ft 334 kts 306°
2026-04-30 00:08 41.39228 -88.81491 21802 ft 336 kts 306°
2026-04-30 00:08 41.40738 -88.83845 21293 ft 333 kts 306°
2026-04-30 00:09 41.42228 -88.86168 20813 ft 330 kts 306°
2026-04-30 00:09 41.43716 -88.88493 20337 ft 328 kts 306°
2026-04-30 00:09 41.45184 -88.90789 19874 ft 327 kts 307°
2026-04-30 00:09 41.46661 -88.93098 19388 ft 326 kts 307°
2026-04-30 00:10 41.48123 -88.95389 18928 ft 324 kts 307°
2026-04-30 00:10 41.49569 -88.97654 18462 ft 322 kts 307°
2026-04-30 00:10 41.51006 -88.99906 17988 ft 320 kts 307°
2026-04-30 00:10 41.52440 -89.02157 17543 ft 318 kts 308°
2026-04-30 00:11 41.53859 -89.04385 17066 ft 317 kts 308°
2026-04-30 00:11 41.55295 -89.06641 16574 ft 315 kts 308°
2026-04-30 00:11 41.56692 -89.08838 16117 ft 312 kts 308°
2026-04-30 00:11 41.58081 -89.11026 15672 ft 311 kts 308°
2026-04-30 00:12 41.59475 -89.13220 15219 ft 310 kts 309°
2026-04-30 00:12 41.60871 -89.15421 14767 ft 309 kts 309°
2026-04-30 00:12 41.62251 -89.17597 14330 ft 307 kts 309°
2026-04-30 00:12 41.63641 -89.19726 13881 ft 305 kts 315°
2026-04-30 00:13 41.65345 -89.21311 13534 ft 290 kts 333°
2026-04-30 00:13 41.67234 -89.21959 13173 ft 280 kts 352°
2026-04-30 00:13 41.69174 -89.21961 12477 ft 279 kts 357°
2026-04-30 00:13 41.71077 -89.21864 11812 ft 274 kts 357°
2026-04-30 00:14 41.72955 -89.21782 11096 ft 271 kts 357°
2026-04-30 00:14 41.74835 -89.21722 10401 ft 267 kts 357°
2026-04-30 00:14 41.76665 -89.21682 9701 ft 264 kts 357°
2026-04-30 00:14 41.78476 -89.21661 9024 ft 260 kts 357°
2026-04-30 00:15 41.80257 -89.21642 8373 ft 256 kts 357°
2026-04-30 00:15 41.82015 -89.21294 7693 ft 258 kts 18°
2026-04-30 00:15 41.83575 -89.20159 7025 ft 259 kts 26°
2026-04-30 00:15 41.85103 -89.18888 6365 ft 255 kts 26°
2026-04-30 00:16 41.86592 -89.17650 5649 ft 254 kts 26°
2026-04-30 00:16 41.88081 -89.16412 5151 ft 251 kts 26°
2026-04-30 00:16 41.89532 -89.15215 4967 ft 238 kts 26°
2026-04-30 00:16 41.90919 -89.14064 4977 ft 234 kts 26°
2026-04-30 00:17 41.92290 -89.12933 4977 ft 229 kts 24°
2026-04-30 00:17 41.93785 -89.12332 5003 ft 222 kts
2026-04-30 00:17 41.95334 -89.12128 4908 ft 227 kts
2026-04-30 00:17 41.96899 -89.11900 4639 ft 224 kts
2026-04-30 00:18 41.98431 -89.11687 4370 ft 219 kts
2026-04-30 00:18 41.99917 -89.11487 4108 ft 214 kts
2026-04-30 00:18 42.01392 -89.11293 3845 ft 210 kts
2026-04-30 00:18 42.02835 -89.11107 3591 ft 206 kts
2026-04-30 00:19 42.04247 -89.10927 3346 ft 201 kts
2026-04-30 00:19 42.05574 -89.10757 3119 ft 183 kts
2026-04-30 00:19 42.06778 -89.10601 2886 ft 167 kts
2026-04-30 00:19 42.07857 -89.10462 2729 ft 141 kts
2026-04-30 00:20 42.08751 -89.10347 2521 ft 120 kts
2026-04-30 00:20 42.09521 -89.10249 2323 ft 103 kts
2026-04-30 00:20 42.10230 -89.10163 2216 ft 105 kts
2026-04-30 00:20 42.10985 -89.10076 2110 ft 109 kts
2026-04-30 00:21 42.11736 -89.09982 1976 ft 108 kts
2026-04-30 00:21 42.12493 -89.09884 1836 ft 108 kts
2026-04-30 00:21 42.13243 -89.09789 1704 ft 109 kts
2026-04-30 00:21 42.14000 -89.09694 1577 ft 110 kts
2026-04-30 00:22 42.14767 -89.09596 1440 ft 111 kts
2026-04-30 00:22 42.15546 -89.09497 1299 ft 113 kts
2026-04-30 00:22 42.16327 -89.09396 1156 ft 113 kts
2026-04-30 00:22 42.17117 -89.09296 1019 ft 114 kts
2026-04-30 00:23 42.17905 -89.09203 866 ft 116 kts
2026-04-30 00:23 42.18726 -89.09090 757 ft 119 kts
2026-04-30 00:23 42.19442 -89.09003 752 ft 71 kts
2026-04-30 00:23 42.19884 -89.08955 752 ft 61 kts
2026-04-30 00:24 42.20144 -89.08955 752 ft 20 kts 306°
2026-04-30 00:24 42.20140 -89.09064 752 ft 0 kts 248°
2026-04-30 00:25 42.20136 -89.09077 752 ft 8 kts 248°
2026-04-30 00:25 42.20086 -89.09225 752 ft 20 kts 245°
2026-04-30 00:25 42.20030 -89.09398 752 ft 19 kts 244°
2026-04-30 00:26 42.19980 -89.09537 752 ft 14 kts 250°
2026-04-30 00:26 42.19939 -89.09661 752 ft 15 kts 246°
2026-04-30 00:26 42.19889 -89.09806 752 ft 17 kts 245°
2026-04-30 00:26 42.19841 -89.09949 752 ft 15 kts 246°
2026-04-30 00:27 42.19799 -89.10074 752 ft 13 kts 245°
2026-04-30 00:27 42.19756 -89.10197 752 ft 17 kts 245°
2026-04-30 00:27 42.19696 -89.10375 752 ft 23 kts 245°
2026-04-30 00:27 42.19628 -89.10574 752 ft 22 kts 245°
2026-04-30 00:28 42.19565 -89.10761 752 ft 20 kts 244°
2026-04-30 00:28 42.19506 -89.10931 752 ft 19 kts 245°
2026-04-30 00:28 42.19454 -89.11086 752 ft 17 kts 245°
2026-04-30 00:28 42.19421 -89.11223 752 ft 15 kts 281°
2026-04-30 00:29 42.19511 -89.11307 752 ft 16 kts 335°
2026-04-30 00:29 42.19572 -89.11272 752 ft 7 kts 62°
2026-04-30 00:29 42.19585 -89.11240 752 ft 0 kts 65°
2026-04-30 00:31 42.19796 -89.10467 752 ft 0 kts 65°
2026-04-30 00:31 42.19797 -89.10467 752 ft 0 kts 253°
2026-04-30 00:31 42.19802 -89.10443 752 ft 1 kts 253°
2026-04-30 00:32 42.19803 -89.10442 751 ft 0 kts 244°
2026-04-30 00:32 42.19804 -89.10444 752 ft 0 kts 244°
2026-04-30 00:32 42.19848 -89.10471 752 ft 0 kts 244°